User: anonymous   Login
Location: ?p Thanh B�nh
(16.5833°N, 107.5333°E)
Time: 03:05:15
(UTC+00:00)
Language:

FENGYUN 3A - Orbit

View from above orbital plane
View from above orbital plane
View from above satellite
View from above satellite

Ground track
Ground track

The orbit data is extracted from the following two-line orbital elements,

1 32958U 08026A   21018.89310890  .00000001  00000-0  20441-4 0  9999
2 32958  98.4317 359.7292 0009839  74.4344 285.7918 14.18645108655265
Epoch (UTC): 18 January 2021 21:26:04
Eccentricity: 0.0009839
inclination: 98.4317°
perigee height: 823 km
apogee height: 837 km
right ascension of ascending node: 359.7292°
argument of perigee: 74.4344°
revolutions per day: 14.18645108
mean anomaly at epoch: 285.7918°
orbit number at epoch: 65526

The dashed part of the orbit path shows where the satellite is in the earth's shadow,  

DLR